This is the latest recevied weather packets stored in our database for station/object JH7UAX-10. If no packets are shown the sender has not sent any weather packets the latest 10 day(s).
| Time | Temp. | Humidity | Pressure | Rain* | Wind** | Luminosity | Snow |
|---|---|---|---|---|---|---|---|
| 1777368177 | 9.44° C | 80% | 1024.7 hPa | 0 mm | - | - | - |
| 1777367705 | 9.44° C | 80% | 1024.8 hPa | 0 mm | - | - | - |
| 1777367279 | 9.44° C | 80% | 1024.8 hPa | 0 mm | - | - | - |
| 1777366805 | 9.44° C | 80% | 1025 hPa | 0 mm | - | - | - |
| 1777366379 | 9.44° C | 79% | 1025.2 hPa | 0 mm | - | - | - |
| 1777365905 | 9.44° C | 79% | 1024.7 hPa | 0 mm | - | - | - |
| 1777365478 | 9.44° C | 79% | 1024.2 hPa | 0 mm | - | - | - |
| 1777365004 | 9.44° C | 79% | 1024.3 hPa | 0 mm | - | - | - |
| 1777364578 | 9.44° C | 78% | 1025 hPa | 0 mm | - | - | - |
| 1777363679 | 10° C | 78% | 1024.8 hPa | 0 mm | - | - | - |
| 1777363204 | 10° C | 78% | 1024.6 hPa | 0 mm | - | - | - |
| 1777362779 | 9.44° C | 77% | 1024.4 hPa | 0 mm | - | - | - |
| 1777362304 | 10° C | 77% | 1024.2 hPa | 0 mm | - | - | - |
| 1777361878 | 10° C | 78% | 1024.3 hPa | 0 mm | - | - | - |
| 1777361406 | 10° C | 77% | 1024.5 hPa | 0 mm | - | - | - |
| 1777360978 | 10.56° C | 76% | 1024.4 hPa | 0 mm | - | - | - |
| 1777360506 | 10.56° C | 76% | 1023.9 hPa | 0 mm | - | - | - |
| 1777360078 | 10.56° C | 76% | 1024.3 hPa | 0 mm | - | - | - |
| 1777359606 | 11.11° C | 75% | 1023.9 hPa | 0 mm | - | - | - |
| 1777359177 | 11.11° C | 74% | 1023.7 hPa | 0 mm | - | - | - |
| 1777358705 | 11.11° C | 74% | 1023.8 hPa | 0 mm | - | - | - |
| 1777358279 | 11.67° C | 72% | 1024.1 hPa | 0 mm | - | - | - |
| 1777357805 | 12.22° C | 69% | 1023.9 hPa | 0 mm | - | - | - |
| 1777357379 | 12.22° C | 72% | 1023.8 hPa | 0 mm | - | - | - |
| 1777356905 | 11.67° C | 73% | 1023.7 hPa | 0 mm | - | - | - |
* Rain latest hour (hover to see other rain measurements)
** Current wind speed in m/s (hover to see current wind gust speed)